Weather History for Yankton, SD

Change the Weather History Date:

Sunday, May 11, 2014

  Actual Average Record
Temperature  
Mean Temperature 56 °F -  
Max Temperature 62 °F 72 °F 93 °F (1987)
Min Temperature 48 °F 46 °F 25 °F (1981)
Degree Days  
Heating Degree Days 9    
Growing Degree Days 6 (Base 50)    
Moisture  
Dew Point 47 °F    
Average Humidity 73    
Maximum Humidity 94    
Minimum Humidity 55    
Precipitation  
Precipitation 0.23 in - - ()
Sea Level Pressure  
Sea Level Pressure 29.81 in    
Wind  
Wind Speed 13 mph (NNW)    
Max Wind Speed 30 mph    
Max Gust Speed 38 mph    
Visibility 10 miles    
Events Thunderstorm    
Averages and records for this station are not official NWS values.
T = Trace of Precipitation, MM = Missing Value Source: NWS Daily Summary

Daily Weather History Graph

Daily Weather History Graph

Search for Another Location

Airport:

Trip Planner

Search our weather history database for the weather conditions in past years. The results will help you decide how hot, cold, wet, or windy it might be!

Date:

Astronomy

May. 11, 2014 Rise Set
Actual Time 6:10 AM CDT 8:41 PM CDT
Civil Twilight 5:38 AM CDT 9:13 PM CDT
Nautical Twilight 4:58 AM CDT 9:54 PM CDT
Astronomical Twilight 4:13 AM CDT 10:39 PM CDT
Moon 5:34 PM CDT (5/11) 4:21 AM CDT (5/11)
Length of Visible Light 15h 35m
Length of Day
14h 30m
Waxing Gibbous, 89% of the Moon is Illuminated
May 11
Waxing Gibbous
May 14
Full
May 21
Last Quarter
May 28
New
Jun 5
First Quarter

Hourly Weather History & Observations

Time (CDT) Temp. Dew Point Humidity Pressure Visibility Wind Dir Wind Speed Gust Speed Precip Events Conditions
12:15 AM 55.4 °F 41.0 °F 58% 29.83 in 10.0 mi NW 11.5 mph - N/A   Clear
12:35 AM 53.6 °F 42.8 °F 67% 29.82 in 10.0 mi NNW 10.4 mph - N/A   Clear
12:55 AM 55.4 °F 42.8 °F 63% 29.82 in 10.0 mi NNE 4.6 mph - N/A   Clear
1:15 AM 57.2 °F 41.0 °F 55% 29.83 in 10.0 mi NNW 5.8 mph - N/A   Scattered Clouds
1:35 AM 55.4 °F 42.8 °F 63% 29.84 in 10.0 mi NNW 11.5 mph - N/A   Overcast
1:55 AM 57.2 °F 42.8 °F 59% 29.83 in 10.0 mi NNW 13.8 mph - N/A   Mostly Cloudy
2:15 AM 57.2 °F 41.0 °F 55% 29.85 in 10.0 mi NW 13.8 mph - N/A   Partly Cloudy
2:35 AM 57.2 °F 41.0 °F 55% 29.84 in 10.0 mi North 5.8 mph - N/A   Clear
2:55 AM 55.4 °F 41.0 °F 58% 29.85 in 10.0 mi NW 8.1 mph - N/A   Clear
3:15 AM 55.4 °F 42.8 °F 63% 29.85 in 10.0 mi NW 8.1 mph - N/A   Scattered Clouds
3:35 AM 55.4 °F 42.8 °F 63% 29.87 in 10.0 mi NNW 8.1 mph - N/A   Mostly Cloudy
3:55 AM 55.4 °F 42.8 °F 63% 29.86 in 10.0 mi NNW 8.1 mph - N/A   Overcast
4:15 AM 55.4 °F 42.8 °F 63% 29.85 in 10.0 mi NNW 12.7 mph - N/A   Mostly Cloudy
4:35 AM 55.4 °F 42.8 °F 63% 29.85 in 10.0 mi NNW 11.5 mph - N/A   Mostly Cloudy
4:55 AM 55.4 °F 41.0 °F 58% 29.84 in 10.0 mi NNW 12.7 mph - N/A   Overcast
5:15 AM 53.6 °F 41.0 °F 62% 29.83 in 10.0 mi NNW 13.8 mph - N/A   Scattered Clouds
5:35 AM 53.6 °F 42.8 °F 67% 29.84 in 10.0 mi NNW 12.7 mph - N/A   Mostly Cloudy
5:55 AM 55.4 °F 42.8 °F 63% 29.83 in 10.0 mi NNW 16.1 mph - N/A   Mostly Cloudy
6:15 AM 55.4 °F 42.8 °F 63% 29.84 in 10.0 mi NNW 13.8 mph - N/A   Mostly Cloudy
6:35 AM 53.6 °F 42.8 °F 67% 29.84 in 10.0 mi NNW 12.7 mph - N/A   Overcast
6:55 AM 53.6 °F 42.8 °F 67% 29.85 in 10.0 mi NNW 10.4 mph - N/A   Overcast
7:15 AM 53.6 °F 42.8 °F 67% 29.88 in 10.0 mi NNW 9.2 mph - N/A   Overcast
7:35 AM 53.6 °F 44.6 °F 72% 29.92 in 10.0 mi NW 12.7 mph - N/A   Overcast
7:55 AM 51.8 °F 44.6 °F 76% 29.92 in 10.0 mi NNW 13.8 mph - N/A   Overcast
8:15 AM 51.8 °F 46.4 °F 82% 29.93 in 10.0 mi NNW 12.7 mph - 0.02 in   Overcast
8:35 AM 50.0 °F 46.4 °F 87% 29.89 in 10.0 mi North 11.5 mph - 0.04 in   Overcast
8:55 AM 51.8 °F 46.4 °F 82% 29.90 in 10.0 mi North 11.5 mph - 0.04 in   Mostly Cloudy
9:15 AM 51.8 °F 46.4 °F 82% 29.89 in 10.0 mi North 9.2 mph - N/A   Scattered Clouds
9:35 AM 51.8 °F 46.4 °F 82% 29.87 in 10.0 mi North 15.0 mph - N/A   Clear
9:55 AM 53.6 °F 48.2 °F 82% 29.87 in 10.0 mi North 17.3 mph 23.0 mph N/A   Clear
10:15 AM 55.4 °F 46.4 °F 72% 29.87 in 10.0 mi North 15.0 mph - N/A   Clear
10:35 AM 55.4 °F 48.2 °F 77% 29.86 in 10.0 mi North 11.5 mph - N/A   Partly Cloudy
10:55 AM 55.4 °F 48.2 °F 77% 29.85 in 10.0 mi North 13.8 mph - N/A   Partly Cloudy
11:15 AM 59.0 °F 50.0 °F 72% 29.83 in 10.0 mi North 17.3 mph 21.9 mph N/A   Partly Cloudy
11:35 AM 59.0 °F 48.2 °F 67% 29.83 in 10.0 mi North 17.3 mph - N/A   Clear
11:55 AM 60.8 °F 48.2 °F 63% 29.83 in 10.0 mi North 13.8 mph 21.9 mph N/A   Partly Cloudy
12:15 PM 62.6 °F 46.4 °F 55% 29.83 in 10.0 mi North 15.0 mph - N/A   Mostly Cloudy
12:35 PM 62.6 °F 48.2 °F 59% 29.83 in 10.0 mi North 17.3 mph - N/A   Overcast
12:55 PM 60.8 °F 46.4 °F 59% 29.82 in 10.0 mi North 13.8 mph - N/A   Overcast
1:15 PM 60.8 °F 48.2 °F 63% 29.81 in 10.0 mi North 15.0 mph - N/A   Overcast
1:35 PM 59.0 °F 48.2 °F 67% 29.81 in 10.0 mi North 13.8 mph - N/A   Overcast
1:55 PM 60.8 °F 48.2 °F 63% 29.80 in 10.0 mi North 15.0 mph - N/A   Overcast
2:15 PM 60.8 °F 48.2 °F 63% 29.79 in 10.0 mi North 12.7 mph - N/A   Overcast
2:35 PM 59.0 °F 48.2 °F 67% 29.79 in 10.0 mi North 15.0 mph 20.7 mph N/A   Overcast
2:55 PM 60.8 °F 48.2 °F 63% 29.79 in 10.0 mi North 15.0 mph - N/A   Overcast
3:15 PM 60.8 °F 48.2 °F 63% 29.78 in 10.0 mi North 12.7 mph - N/A   Overcast
3:35 PM 59.0 °F 50.0 °F 72% 29.78 in 10.0 mi NNW 13.8 mph - N/A   Overcast
3:55 PM 59.0 °F 48.2 °F 67% 29.76 in 10.0 mi North 16.1 mph - N/A   Overcast
4:15 PM 57.2 °F 48.2 °F 72% 29.74 in 10.0 mi North 13.8 mph 24.2 mph N/A   Overcast
4:35 PM 57.2 °F 48.2 °F 72% 29.76 in 10.0 mi North 8.1 mph 24.2 mph N/A   Overcast
4:55 PM 57.2 °F 50.0 °F 77% 29.75 in 10.0 mi North 13.8 mph 18.4 mph N/A   Overcast
5:15 PM 57.2 °F 50.0 °F 77% 29.73 in 10.0 mi North 15.0 mph 19.6 mph N/A   Overcast
5:35 PM 57.2 °F 50.0 °F 77% 29.72 in 10.0 mi NNW 16.1 mph - N/A   Overcast
5:55 PM 57.2 °F 48.2 °F 72% 29.69 in 10.0 mi North 20.7 mph - N/A   Overcast
6:15 PM 55.4 °F 51.8 °F 88% 29.69 in 9.0 mi NNW 19.6 mph 26.5 mph N/A Thunderstorm Overcast
6:35 PM 55.4 °F 51.8 °F 88% 29.69 in 1.5 mi NW 25.3 mph 31.1 mph N/A Thunderstorm Thunderstorm
6:55 PM 53.6 °F 51.8 °F 94% 29.69 in 2.5 mi NNW 29.9 mph 35.7 mph 0.13 in Thunderstorm Thunderstorm
7:15 PM 53.6 °F 51.8 °F 94% 29.70 in 4.0 mi NNW 28.8 mph 35.7 mph 0.01 in Thunderstorm Overcast
7:35 PM 53.6 °F 51.8 °F 94% 29.71 in 7.0 mi North 19.6 mph 38.0 mph 0.04 in Thunderstorm Overcast
7:55 PM 53.6 °F 51.8 °F 94% 29.74 in 8.0 mi North 21.9 mph 32.2 mph 0.05 in   Mostly Cloudy
8:15 PM 53.6 °F 51.8 °F 94% 29.71 in 9.0 mi NNW 18.4 mph - N/A   Mostly Cloudy
8:35 PM 53.6 °F 51.8 °F 94% 29.70 in 9.0 mi NNW 23.0 mph 33.4 mph N/A   Overcast
8:55 PM 53.6 °F 51.8 °F 94% 29.74 in 10.0 mi NNW 20.7 mph 29.9 mph N/A   Overcast
9:15 PM 53.6 °F 50.0 °F 88% 29.74 in 8.0 mi NNW 29.9 mph 38.0 mph 0.01 in   Overcast
9:35 PM 51.8 °F 48.2 °F 88% 29.77 in 7.0 mi NNW 28.8 mph 38.0 mph 0.01 in   Overcast
9:55 PM 51.8 °F 48.2 °F 88% 29.81 in 10.0 mi NNW 21.9 mph 34.5 mph 0.01 in Thunderstorm Overcast
10:15 PM 51.8 °F 48.2 °F 88% 29.79 in 10.0 mi NNW 26.5 mph 36.8 mph N/A   Overcast
10:35 PM 50.0 °F 48.2 °F 94% 29.78 in 10.0 mi NNW 26.5 mph 32.2 mph N/A   Overcast
10:55 PM 51.8 °F 48.2 °F 88% 29.78 in 10.0 mi NNW 19.6 mph 26.5 mph N/A   Overcast
11:15 PM 51.8 °F 48.2 °F 88% 29.79 in 10.0 mi NNW 23.0 mph 32.2 mph N/A   Overcast
11:35 PM 50.0 °F 48.2 °F 94% 29.79 in 10.0 mi NW 24.2 mph 31.1 mph N/A   Overcast
11:55 PM 48.2 °F 46.4 °F 93% 29.80 in 10.0 mi NW 24.2 mph 28.8 mph N/A   Overcast